TimeEST,TemperatureF,Dew PointF,Humidity,Sea Level PressureIn,VisibilityMPH,Wind Direction,Wind SpeedMPH,Gust SpeedMPH,PrecipitationIn,Events,Conditions,WindDirDegrees,DateUTC
12:53 AM,28.9,23.0,78,29.91,10.0,WNW,3.5,-,N/A,,Mostly Cloudy,300,2012-12-11 05:53:00
1:53 AM,28.0,21.0,75,29.93,10.0,West,4.6,-,N/A,,Mostly Cloudy,280,2012-12-11 06:53:00
2:53 AM,28.0,21.9,78,29.94,10.0,WNW,3.5,-,N/A,,Clear,290,2012-12-11 07:53:00
3:53 AM,27.0,21.9,81,29.96,10.0,WNW,5.8,-,N/A,,Clear,290,2012-12-11 08:53:00
4:53 AM,28.0,21.9,78,29.97,10.0,WNW,5.8,-,N/A,,Overcast,300,2012-12-11 09:53:00
5:53 AM,28.0,21.0,75,29.99,10.0,NW,3.5,-,N/A,,Overcast,310,2012-12-11 10:53:00
6:53 AM,28.0,21.9,78,30.01,10.0,Calm,Calm,-,N/A,,Overcast,0,2012-12-11 11:53:00
7:53 AM,27.0,21.9,81,30.02,10.0,Calm,Calm,-,N/A,,Overcast,0,2012-12-11 12:53:00
8:50 AM,28.4,24.8,86,30.01,6.0,Calm,Calm,-,N/A,,Overcast,0,2012-12-11 13:50:00
8:53 AM,28.0,24.1,85,30.05,4.0,Calm,Calm,-,0.00,Snow,Light Snow,0,2012-12-11 13:53:00
8:56 AM,28.4,24.8,86,30.01,1.8,SSW,3.5,-,0.00,Snow,Light Snow,210,2012-12-11 13:56:00
9:03 AM,28.4,24.8,86,30.01,1.2,SW,3.5,-,0.00,Snow,Light Snow,220,2012-12-11 14:03:00
9:07 AM,28.4,24.8,86,30.01,2.0,SSW,3.5,-,0.00,Snow,Light Snow,200,2012-12-11 14:07:00
9:15 AM,28.4,24.8,86,30.02,7.0,Calm,Calm,-,0.00,Snow,Light Snow,0,2012-12-11 14:15:00
9:28 AM,28.4,26.6,93,30.02,6.0,SW,3.5,-,0.00,Snow,Light Snow,220,2012-12-11 14:28:00
9:35 AM,30.2,26.6,86,30.02,5.0,SW,4.6,-,0.00,Snow,Light Snow,220,2012-12-11 14:35:00
9:53 AM,30.0,27.0,88,30.06,7.0,WSW,4.6,-,0.00,,Overcast,250,2012-12-11 14:53:00
10:53 AM,33.1,24.1,70,30.07,10.0,West,8.1,-,N/A,,Clear,260,2012-12-11 15:53:00
11:53 AM,33.1,19.0,56,30.08,10.0,West,13.8,23.0,N/A,,Clear,260,2012-12-11 16:53:00
12:53 PM,32.0,19.9,61,30.07,10.0,West,12.7,-,N/A,,Overcast,260,2012-12-11 17:53:00
1:53 PM,32.0,19.9,61,30.09,10.0,WSW,11.5,19.6,N/A,,Overcast,250,2012-12-11 18:53:00
2:53 PM,33.1,19.0,56,30.09,10.0,West,10.4,-,N/A,,Overcast,270,2012-12-11 19:53:00
3:53 PM,32.0,21.9,66,30.09,10.0,WSW,9.2,-,N/A,,Overcast,240,2012-12-11 20:53:00
4:53 PM,30.9,21.0,67,30.11,10.0,SW,11.5,-,N/A,,Mostly Cloudy,230,2012-12-11 21:53:00
5:53 PM,28.9,19.9,69,30.13,10.0,SW,11.5,-,N/A,,Clear,220,2012-12-11 22:53:00
6:53 PM,28.0,21.0,75,30.13,10.0,SW,9.2,-,N/A,,Clear,220,2012-12-11 23:53:00
7:53 PM,28.0,21.9,78,30.14,10.0,SW,9.2,-,N/A,,Clear,220,2012-12-12 00:53:00
8:53 PM,28.0,21.9,78,30.17,10.0,SW,10.4,-,N/A,,Clear,230,2012-12-12 01:53:00
9:53 PM,27.0,23.0,85,30.18,10.0,SW,9.2,-,N/A,,Clear,230,2012-12-12 02:53:00
10:53 PM,26.1,21.9,84,30.19,10.0,WSW,4.6,-,N/A,,Clear,240,2012-12-12 03:53:00
11:53 PM,26.1,21.9,84,30.21,10.0,SW,9.2,-,N/A,,Clear,230,2012-12-12 04:53:00